Terug naar catalogus

STARLINK-35265

ActiefCommunicatieVLEO
NORAD 65748·PAYLOAD·🇺🇸 United States

Gelanceerd Sep 25, 2025 vanaf Cape Canaveral Space Force Station

Loading…

Volgende Passages (komende 24 uur)

TLE

VersSource: CelesTrak SupGP

Epoch: Sep 15, 2026, 02:51 UTC

1 65748C 25216Q   26258.11923611  .00020387  00000+0  60277-3 0  2585
2 65748  53.1574 170.5304 0001195  81.3275 188.7708 15.34358121    12

Volg STARLINK-35265 in realtime met AllMySat

Download on the App Store